Regional Weather Roundup
Issued by NWS

Home | Current Version | Previous Version | Text Only | Print | Product List | Glossary Off
Versions: 1 2 3 4 5 6 7 8 9 10 11 12 13 14 15 16 17 18 19 20 21 22 23 24 25 26 27 28 29 30 31 32 33 34 35 36 37 38 39 40 41 42 43 44 45 46 47 48 49 50

000
ASUS43 KLOT 040703
RWRIL

ILLINOIS REGIONAL WEATHER ROUNDUP
NATIONAL WEATHER SERVICE CHICAGO/ROMEOVILLE IL
100 AM CST SUN DEC 04 2016

NOTE: "FAIR" INDICATES FEW OR NO CLOUDS BELOW 12,000 FEET WITH NO
SIGNIFICANT WEATHER AND/OR OBSTRUCTIONS TO VISIBILITY.

* THESE STATIONS ARE NOT UNDER NWS QUALITY CONTROL. THEY ALSO MAY NOT
  REPORT WEATHER SUCH AS PRECIPITATION OR FOG.

ILZ001-002-007-009-015-016-024-040800-
NORTHWEST ILLINOIS

CITY           SKY/WX    TMP DP  RH WIND       PRES   REMARKS
MOLINE         CLOUDY    34  27  75 SE7       30.20F WCI  28
SAVANNA*       CLOUDY    33  28  82 S5        30.21F WCI  29
$$

ILZ003-004-008-010-011-017-018-040800-
NORTH CENTRAL ILLINOIS

CITY           SKY/WX    TMP DP  RH WIND       PRES   REMARKS
ROCKFORD       CLOUDY    33  27  78 S8        30.24F WCI  26
FREEPORT*      CLOUDY    32  28  86 S5        30.23F WCI  27
ROCHELLE*      CLOUDY    32  29  90 S6        30.24S WCI  26
$$

ILZ005-006-012>014-019>023-040800-
NORTHEAST ILLINOIS

CITY           SKY/WX    TMP DP  RH WIND       PRES   REMARKS
CHICAGO-OHARE  CLOUDY    32  25  75 CALM      30.24F
CHICAGO-MIDWAY MOCLDY    32  24  72 S3        30.25F
AURORA         CLOUDY    32  27  81 SE3       30.24F
LANSING*       CLOUDY    30  28  92 CALM      30.26F
JOLIET*        MOCLDY    32  29  88 CALM      30.24F
WAUKEGAN       CLOUDY    30  25  81 W3        30.25F
DUPAGE AIRPORT CLOUDY    31  26  82 CALM      30.23F
KANKAKEE*      CLOUDY    31  28  88 CALM      30.26F
WHEELING       CLOUDY    32  24  72 CALM      30.26F
MORRIS*        CLOUDY    31  28  88 CALM      30.24F
ROMEOVILLE*    CLOUDY    30  29  96 CALM      30.24F
NORTHERLY ISL    N/A     33  24  70 W6          N/A  WCI  28
$$

LMZ740>746-040800-
SOUTHERN LAKE MICHIGAN

STATION/POSITION SKY/WX   TEMP    WIND        PRES    VSBY  WAVE
                          AIR SEA DIR/SP/G                  HT/PER
                          (F)     (DEG/KT/KT) (MB)    (MI)  (FT/S)
SOUTHERN BUOY              35 48  280/  2/  8 1025.1          1
HARRISON CRIB              35     250/  6/  8   N/A
BURNHAM HARBOR             33     200/  4/  8   N/A
CALUMET HARBOR             32     220/  3/  5 1024.5F
BURNS HARBOR               33     200/  8/ 11 1025.4S
MICHIGAN CITY              33     160/  5/  7   N/A
$$

ILZ025>027-034>036-040-047-049-050-058-095>099-040800-
WEST-CENTRAL ILLINOIS

CITY           SKY/WX    TMP DP  RH WIND       PRES   REMARKS
QUINCY         CLOUDY    38  34  85 SE9       30.16F WCI  31
GALESBURG*     CLOUDY    33  30  89 E7        30.20F WCI  26
MACOMB*        CLOUDY    34  32  92 SE9       30.22F WCI  27
JACKSONVILLE*  CLOUDY    36  32  86 E7        30.19F WCI  30
PITTSFIELD*    CLOUDY    38  35  89 E5        30.18F WCI  34
$$

ILZ028>032-037-038-041>044-048-051>054-059>061-040800-
CENTRAL ILLINOIS

CITY           SKY/WX    TMP DP  RH WIND       PRES   REMARKS
PONTIAC        CLOUDY    32  31  96 SE5       30.24F WCI  27
BLOOMINGTON    CLOUDY    31  28  89 E7        30.23F WCI  24
DECATUR        CLOUDY   N/A N/A N/A E8        30.22F
PEORIA         CLOUDY    33  28  81 E5        30.23F WCI  29
LACON*         CLOUDY    32  28  83 CALM      30.24S
LINCOLN*       CLOUDY    33  31  90 E5        30.23S WCI  29
SPRINGFIELD    CLOUDY    36  31  82 E9        30.21F WCI  29
TAYLORVILLE    CLOUDY    34  32  90 E9        30.21F WCI  27
$$

ILZ033-039-045-046-055>057-062-063-040800-
EAST-CENTRAL ILLINOIS

CITY           SKY/WX    TMP DP  RH WIND       PRES   REMARKS
CHAMPAIGN      CLOUDY    32  28  85 E7        30.22F WCI  26
RANTOUL*       CLOUDY    33  31  90 E5        30.23F WCI  29
MATTOON        CLOUDY    34  28  79 E5        30.22F WCI  30
PARIS*         CLOUDY    32  31  93 E5        30.24F WCI  28
$$

ILZ079-100>102-040800-
SOUTHWEST ILLINOIS

CITY           SKY/WX    TMP DP  RH WIND       PRES   REMARKS
ALTON          CLOUDY    38  33  84 E8        30.18F WCI  32
BELLEVILLE     CLOUDY    39  35  84 E5        30.18F
CAHOKIA*       CLOUDY    41  32  70 E7        30.18F
SPARTA*        CLOUDY    38  33  81 E6        30.19F WCI  34
$$

ILZ064>066-069>071-074>076-080>082-084>086-088>090-092>094-040800-
SOUTH-CENTRAL ILLINOIS

CITY           SKY/WX    TMP DP  RH WIND       PRES   REMARKS
CARBONDALE     CLOUDY    40  33  76 NE7       30.18F
CAIRO*         DRIZZLE   38  37  94 NE7       30.16F WCI  33
EFFINGHAM*     CLOUDY    36  32  84 NE5       30.23F WCI  32
MARION         CLOUDY    41  34  75 NE7       30.18F
CENTRALIA*     CLOUDY    39  33  81 E6        30.20F WCI  34
SALEM*         CLOUDY    39  32  77 E5        30.20F
METROPOLIS*    DRIZZLE   39  36  91 CALM      30.18F
$$

ILZ067-068-072-073-078-083-087-091-040800-
SOUTHEAST ILLINOIS

CITY           SKY/WX    TMP DP  RH WIND       PRES   REMARKS
LAWRENCEVILLE  CLOUDY    37  30  75 NE7       30.24F WCI  32
FLORA*         CLOUDY    38  32  78 E6        30.22F WCI  34
FAIRFIELD*     CLOUDY    38  32  78 NE3       30.22S
HARRISBURG*    CLOUDY    40  33  75 NE7       30.20F
ROBINSON*      CLOUDY    35  32  88 CALM      30.26F
CARMI*         CLOUDY    39  34  82 NE6       30.20F WCI  34
$$

ABBREVIATIONS USED IN REMARKS
   TC - TEMPERATURE IN CELSIUS
  WCI - WIND CHILL INDEX
   HX - HEAT INDEX
  VSB - VISIBILITY
$$




USA.gov is the U.S. government's official web portal to all federal, state and local government web resources and services.